Location: Arbon
(43.0005°N, 0.7472°E)
Time: 11:28:34
(UTC+00:00)

Transit 2A Rocket - All Passes

Search period start: 30 November 2020 00:00
Search period end: 10 December 2020 00:00
Orbit: 588 x 914 km, 66.7° (Epoch: 29 November)

Date Brightness Start Highest point End Pass type
(mag) Time Alt. Az. Time Alt. Az. Time Alt. Az.
30 Nov - 01:02:42 10° S 01:08:30 51° ESE 01:14:00 10° NE night (unlit)
30 Nov - 02:46:08 10° WSW 02:51:20 31° NW 02:56:15 10° NNE visible
30 Nov - 09:46:24 10° NNW 09:51:03 43° NE 09:55:20 10° SE daylight
30 Nov - 11:29:40 10° WNW 11:33:15 22° WSW 11:36:39 10° SSW daylight
01 Dec - 00:20:53 10° S 00:26:04 31° ESE 00:31:01 10° NE night (unlit)
01 Dec - 02:02:47 10° SW 02:08:32 47° NW 02:13:56 10° NNE night (unlit)
01 Dec - 03:50:31 10° NW 03:52:27 12° NNW 03:54:21 10° NNW visible
01 Dec - 09:04:05 10° NNW 09:08:13 26° NE 09:12:05 10° ESE daylight
01 Dec - 10:46:30 10° NW 10:50:56 40° WSW 10:55:03 10° S daylight
01 Dec - 23:39:43 10° SSE 23:43:43 19° ESE 23:47:36 10° ENE night (unlit)
02 Dec - 01:19:51 10° SW 01:25:50 74° WNW 01:31:28 10° NNE night (unlit)
02 Dec - 03:05:42 10° WNW 03:09:19 17° NW 03:12:48 10° N visible
02 Dec - 08:21:59 10° N 08:25:15 17° NE 08:28:21 10° E daylight
02 Dec - 10:03:41 10° NW 10:08:29 75° WSW 10:12:53 10° SSE daylight
02 Dec - 23:00:36 10° ESE 23:01:29 10° ESE 23:02:23 10° E night (unlit)
03 Dec - 00:37:17 10° SSW 00:43:15 70° ESE 00:48:51 10° NE night (unlit)
03 Dec - 02:21:38 10° W 02:26:19 24° NW 02:30:45 10° N night (unlit)
03 Dec - 07:40:22 10° NNE 07:42:10 12° NNE 07:43:53 10° NE daylight
03 Dec - 09:21:05 10° NNW 09:25:53 61° NE 09:30:16 10° SE daylight
03 Dec - 11:05:16 10° WNW 11:07:46 15° WSW 11:10:11 10° SW daylight
03 Dec - 23:55:08 10° S 00:00:44 43° ESE 00:06:04 10° NE night (unlit)
04 Dec - 01:38:03 10° WSW 01:43:26 35° NW 01:48:31 10° NNE night (unlit)
04 Dec - 08:38:40 10° NNW 08:43:09 35° NE 08:47:16 10° ESE daylight
04 Dec - 10:21:36 10° NW 10:25:31 27° WSW 10:29:12 10° SSW daylight
04 Dec - 23:13:30 10° SSE 23:18:20 26° ESE 23:22:58 10° NE night (unlit)
05 Dec - 00:54:51 10° SW 01:00:41 55° NW 01:06:09 10° NNE night (unlit)
05 Dec - 02:41:51 10° WNW 02:44:26 13° NW 02:46:56 10° N night (unlit)
05 Dec - 07:56:26 10° N 08:00:16 22° NE 08:03:51 10° E daylight
05 Dec - 09:38:34 10° NW 09:43:09 49° WSW 09:47:23 10° S daylight
05 Dec - 22:32:44 10° SE 22:36:02 15° ESE 22:39:15 10° ENE night (unlit)
06 Dec - 00:12:02 10° SSW 00:18:02 87° WNW 00:23:38 10° NNE night (unlit)
06 Dec - 01:57:21 10° W 02:01:20 19° NW 02:05:10 10° N night (unlit)
06 Dec - 07:14:28 10° N 07:17:15 15° NE 07:19:55 10° ENE daylight
06 Dec - 08:55:51 10° NNW 09:00:39 89° ENE 09:05:03 10° SSE daylight
06 Dec - 23:29:36 10° SSW 23:35:28 59° ESE 23:40:58 10° NE night (unlit)
07 Dec - 01:13:28 10° WSW 01:18:23 27° NW 01:23:03 10° NNE night (unlit)
07 Dec - 06:33:43 10° NNE 06:34:07 10° NNE 06:34:29 10° NE visible
07 Dec - 08:13:19 10° NNW 08:18:00 50° NE 08:22:18 10° SE daylight
07 Dec - 09:56:56 10° WNW 10:00:03 18° WSW 10:03:01 10° SSW daylight
07 Dec - 22:47:37 10° S 22:53:00 36° ESE 22:58:05 10° NE night (unlit)
08 Dec - 00:30:01 10° WSW 00:35:33 41° NW 00:40:46 10° NNE night (unlit)
08 Dec - 02:19:03 10° NW 02:19:35 10° NNW 02:20:07 10° NNW night (unlit)
08 Dec - 07:30:58 10° NNW 07:35:12 30° NE 07:39:09 10° ESE daylight
08 Dec - 09:13:35 10° NW 09:17:45 33° WSW 09:21:40 10° S daylight
08 Dec - 22:06:14 10° SSE 22:10:37 22° ESE 22:14:49 10° ENE night (unlit)
08 Dec - 23:46:57 10° SW 23:52:50 64° NW 23:58:20 10° NNE night (unlit)
09 Dec - 01:33:20 10° WNW 01:36:25 15° NW 01:39:24 10° N night (unlit)
09 Dec - 06:48:49 10° N 06:52:17 19° NE 06:55:33 10° E daylight
09 Dec - 08:30:41 10° NW 08:35:20 62° WSW 08:39:39 10° SSE daylight
09 Dec - 21:26:02 10° SE 21:28:20 12° ESE 21:30:35 10° E night (unlit)
09 Dec - 23:04:16 10° SSW 23:10:12 81° ESE 23:15:47 10° NNE night (unlit)
